TimeEDT,TemperatureF,Dew PointF,Humidity,Sea Level PressureIn,VisibilityMPH,Wind Direction,Wind SpeedMPH,Gust SpeedMPH,PrecipitationIn,Events,Conditions,WindDirDegrees,DateUTC
12:05 AM,55.4,53.6,94,30.23,10.0,ENE,5.8,-,N/A,,Overcast,70,2013-04-28 04:05:00
12:54 AM,55.4,53.6,94,30.23,6.0,SE,10.4,-,0.01,Rain,Rain,130,2013-04-28 04:54:00
12:56 AM,55.0,54.0,96,30.22,6.0,ESE,11.5,-,0.02,Rain,Rain,120,2013-04-28 04:56:00
1:56 AM,55.0,54.0,96,30.22,7.0,NNE,4.6,-,0.08,,Overcast,30,2013-04-28 05:56:00
2:29 AM,55.4,53.6,94,30.22,4.0,North,3.5,-,0.04,Rain,Rain,10,2013-04-28 06:29:00
2:46 AM,53.6,53.6,100,30.19,6.0,ENE,5.8,-,0.05,Rain,Light Rain,70,2013-04-28 06:46:00
2:56 AM,54.0,54.0,100,30.19,5.0,East,5.8,-,0.07,Rain,Rain,80,2013-04-28 06:56:00
3:24 AM,53.6,53.6,100,30.18,5.0,East,5.8,-,0.04,Rain,Light Rain,90,2013-04-28 07:24:00
3:56 AM,55.0,54.0,96,30.18,6.0,NE,4.6,-,0.05,Rain,Light Rain,40,2013-04-28 07:56:00
4:56 AM,55.0,53.1,93,30.20,10.0,East,3.5,-,0.02,Rain,Light Rain,90,2013-04-28 08:56:00
5:13 AM,53.6,53.6,100,30.18,7.0,ENE,9.2,-,0.01,Rain,Light Rain,70,2013-04-28 09:13:00
5:56 AM,54.0,52.0,93,30.16,10.0,East,5.8,-,0.02,Rain,Light Rain,100,2013-04-28 09:56:00
6:35 AM,53.6,53.6,100,30.16,3.0,East,4.6,-,0.09,Rain,Heavy Rain,100,2013-04-28 10:35:00
6:56 AM,53.1,53.1,100,30.15,4.0,ESE,3.5,-,0.16,Rain,Heavy Rain,110,2013-04-28 10:56:00
7:12 AM,53.6,53.6,100,30.17,4.0,Calm,Calm,-,0.04,Rain,Light Rain,0,2013-04-28 11:12:00
7:34 AM,53.6,53.6,100,30.18,6.0,WNW,9.2,-,0.12,Rain,Light Rain,300,2013-04-28 11:34:00
7:43 AM,53.6,53.6,100,30.18,1.8,Variable,3.5,-,0.18,Rain,Heavy Rain,0,2013-04-28 11:43:00
7:52 AM,53.6,53.6,100,30.19,3.0,NNW,5.8,-,0.19,Rain,Light Rain,340,2013-04-28 11:52:00
7:56 AM,54.0,53.1,97,30.18,3.0,NNW,5.8,-,0.19,Rain,Light Rain,340,2013-04-28 11:56:00
8:12 AM,53.6,53.6,100,30.19,2.5,North,5.8,-,0.01,Rain,Rain,10,2013-04-28 12:12:00
8:25 AM,53.6,53.6,100,30.19,4.0,NNE,6.9,-,0.02,Rain,Light Rain,30,2013-04-28 12:25:00
8:36 AM,53.6,53.6,100,30.18,5.0,ENE,4.6,-,0.02,Rain,Light Rain,70,2013-04-28 12:36:00
8:56 AM,54.0,53.1,97,30.17,8.0,NE,5.8,-,0.02,Rain,Light Rain,40,2013-04-28 12:56:00
9:12 AM,53.6,53.6,100,30.17,9.0,ENE,6.9,-,0.00,Rain,Light Rain,70,2013-04-28 13:12:00
9:47 AM,53.6,53.6,100,30.17,1.8,North,8.1,19.6,0.13,Rain,Heavy Rain,10,2013-04-28 13:47:00
9:56 AM,53.1,53.1,100,30.17,1.2,North,5.8,-,0.19,Rain,Heavy Rain,360,2013-04-28 13:56:00
10:01 AM,53.6,53.6,100,30.17,3.0,North,6.9,-,0.01,Rain,Rain,360,2013-04-28 14:01:00
10:23 AM,53.6,51.8,94,30.19,1.8,North,9.2,-,0.10,Rain,Heavy Rain,350,2013-04-28 14:23:00
10:30 AM,53.6,51.8,94,30.18,3.0,NNE,9.2,-,0.11,Rain,Light Rain,30,2013-04-28 14:30:00
10:56 AM,53.1,52.0,96,30.17,10.0,NE,6.9,-,0.11,Rain,Light Rain,40,2013-04-28 14:56:00
11:11 AM,53.6,51.8,94,30.18,10.0,NE,6.9,-,0.01,Rain,Light Rain,50,2013-04-28 15:11:00
11:56 AM,53.1,52.0,96,30.16,8.0,ENE,9.2,-,0.04,Rain,Rain,60,2013-04-28 15:56:00
12:56 PM,54.0,53.1,97,30.14,10.0,NE,6.9,-,0.04,Rain,Light Rain,40,2013-04-28 16:56:00
1:38 PM,53.6,53.6,100,30.13,10.0,NE,8.1,-,0.00,Rain,Light Rain,50,2013-04-28 17:38:00
1:56 PM,54.0,54.0,100,30.12,5.0,NE,5.8,-,0.02,Rain,Rain,50,2013-04-28 17:56:00
2:56 PM,55.0,54.0,96,30.11,6.0,NNE,4.6,-,0.07,Rain,Light Rain,20,2013-04-28 18:56:00
3:04 PM,55.4,53.6,94,30.12,1.8,Calm,Calm,-,0.07,Rain,Rain,0,2013-04-28 19:04:00
3:22 PM,53.6,53.6,100,30.10,3.0,NE,6.9,-,0.21,Rain,Rain,50,2013-04-28 19:22:00
3:32 PM,55.4,53.6,94,30.10,3.0,NE,5.8,-,0.25,Rain,Heavy Rain,50,2013-04-28 19:32:00
3:39 PM,53.6,53.6,100,30.10,1.8,NE,5.8,-,0.32,Rain,Heavy Rain,50,2013-04-28 19:39:00
3:50 PM,55.4,53.6,94,30.09,3.0,East,10.4,-,0.36,Rain,Rain,80,2013-04-28 19:50:00
3:56 PM,55.0,55.0,100,30.09,6.0,ENE,10.4,-,0.37,Rain,Rain,70,2013-04-28 19:56:00
4:56 PM,55.9,55.0,97,30.06,9.0,ENE,9.2,-,0.06,Rain,Light Rain,60,2013-04-28 20:56:00
5:35 PM,55.4,55.4,100,30.07,9.0,Variable,4.6,-,0.03,Rain,Light Rain,0,2013-04-28 21:35:00
5:56 PM,55.9,55.0,97,30.06,9.0,NE,8.1,-,0.05,Rain,Light Rain,50,2013-04-28 21:56:00
6:05 PM,55.4,55.4,100,30.07,8.0,NE,8.1,-,0.02,Rain,Rain,40,2013-04-28 22:05:00
6:21 PM,55.4,55.4,100,30.08,10.0,ENE,3.5,-,0.04,Rain,Light Rain,60,2013-04-28 22:21:00
6:56 PM,55.9,55.0,97,30.09,6.0,NW,6.9,-,0.07,Rain,Light Rain,310,2013-04-28 22:56:00
7:34 PM,55.4,55.4,100,30.06,10.0,NNE,5.8,-,0.02,Rain,Light Rain,20,2013-04-28 23:34:00
7:56 PM,55.0,55.0,100,30.05,10.0,NE,8.1,-,0.03,Rain,Light Rain,50,2013-04-28 23:56:00
8:56 PM,55.0,54.0,96,30.04,10.0,ENE,5.8,-,0.00,Rain,Light Rain,70,2013-04-29 00:56:00
9:06 PM,55.4,53.6,94,30.06,10.0,East,3.5,-,0.00,,Overcast,90,2013-04-29 01:06:00
9:56 PM,55.0,54.0,96,30.06,10.0,SE,3.5,-,0.00,,Overcast,130,2013-04-29 01:56:00
10:56 PM,55.0,54.0,96,30.06,10.0,Calm,Calm,-,N/A,,Overcast,0,2013-04-29 02:56:00
11:42 PM,55.4,53.6,94,30.06,10.0,SE,3.5,-,N/A,,Overcast,130,2013-04-29 03:42:00
11:56 PM,55.0,54.0,96,30.06,10.0,SE,3.5,-,0.00,Rain,Light Rain,140,2013-04-29 03:56:00